Regional Weather Roundup
Issued by NWS

Home | Current Version | Previous Version | Text Only | Print | Product List | Glossary On
Versions: 1 2 3 4 5 6 7 8 9 10 11 12 13 14 15 16 17 18 19 20 21 22 23 24 25 26 27 28 29 30 31 32 33 34 35 36 37 38 39 40 41 42 43 44 45 46 47 48 49 50
000
ASUS45 KREV 070810
RWRNV
NEVADA REGIONAL WEATHER ROUNDUP
NATIONAL WEATHER SERVICE RENO NV
1200 AM PST WED DEC 07 2016

NOTE: "FAIR" INDICATES FEW OR NO CLOUDS BELOW 12,000 FEET WITH NO
SIGNIFICANT WEATHER AND/OR OBSTRUCTIONS TO VISIBILITY.

NVZ001-003-004-070900-
WESTERN NEVADA

CITY           SKY/WX    TMP DP  RH WIND       PRES   REMARKS
RENO           MOCLDY    29  18  63 N6        30.10R
CARSON CITY    MOCLDY    28  18  64 NW9       30.09R
MINDEN         MOCLDY    19  14  79 E5        30.09R
PYRAMID LAKE     N/A     32 N/A N/A NW5         N/A
FALLON         NOT AVBL
LOVELOCK       PTCLDY    18  15  88 N7        30.12R
HAWTHORNE        N/A     32  19  59 CALM      30.09R
$$

NVZ002-CAZ072-073-070900-
NORTHERN AND CENTRAL SIERRA

CITY           SKY/WX    TMP DP  RH WIND       PRES   REMARKS
S. LAKE TAHOE  PTCLDY    17  10  74 S6        30.01R
TRUCKEE        PTCLDY    21  18  86 CALM      30.05R
SQUAW VLY 8000   N/A     16  14  93 CALM        N/A
SUSANVILLE     CLOUDY   N/A N/A N/A E3        30.13R
MAMMOTH LAKES  FAIR      19  -7  31 CALM      29.95R
BRIDGEPORT       N/A     16   3  56 CALM      29.98R
$$

NVZ030-031-036-070900-
NORTHERN NEVADA

CITY           SKY/WX    TMP DP  RH WIND       PRES   REMARKS
ELKO           CLOUDY    23  15  71 CALM      30.04R
WINNEMUCCA     CLEAR     15  14  95 CALM      30.11R
WENDOVER       CLOUDY    27  10  50 CALM      30.04R
$$

NVZ035-037-070900-
CENTRAL NEVADA

CITY           SKY/WX    TMP DP  RH WIND       PRES   REMARKS
ELY            CLEAR      6   2  83 S8        29.98R
EUREKA           N/A     22  14  71 W7        30.00R
$$

NVZ013-014-070900-
SOUTH CENTRAL NEVADA

CITY           SKY/WX    TMP DP  RH WIND       PRES   REMARKS
TONOPAH        PTCLDY    20  11  68 NW6       30.00R
$$

NVZ017-020-022-070900-
SOUTHERN NEVADA

CITY           SKY/WX    TMP DP  RH WIND       PRES   REMARKS
LAS VEGAS      PTCLDY    47  16  29 NE7       29.91R
N. LAS VEGAS   CLEAR     49  13  23 N10       29.90R
NELLIS AFB     CLEAR     51  14  23 N14       29.92R
HENDERSON      CLEAR     48  18  30 NE7       29.93R
MERCURY        CLEAR     42  11  28 NE20G29   29.94R
$$



USA.gov is the U.S. government's official web portal to all federal, state and local government web resources and services.